Year,Month,Day,Hour,Minute,Value (Times are PST for temperature in C)
2013,10,23,00,00,7.20
2013,10,23,00,01,7.20
2013,10,23,00,02,7.10
2013,10,23,00,03,7.10
2013,10,23,00,04,7.00
2013,10,23,00,05,7.00
2013,10,23,00,06,6.90
2013,10,23,00,07,6.90
2013,10,23,00,08,6.80
2013,10,23,00,09,6.70
2013,10,23,00,10,6.70
2013,10,23,00,11,6.60
2013,10,23,00,12,6.60
2013,10,23,00,13,6.50
2013,10,23,00,14,6.50
2013,10,23,00,15,6.40
2013,10,23,00,16,6.40
2013,10,23,00,17,6.40
2013,10,23,00,18,6.30
2013,10,23,00,19,6.30
2013,10,23,00,20,6.30
2013,10,23,00,21,6.20
2013,10,23,00,22,6.20
2013,10,23,00,23,6.20
2013,10,23,00,24,6.20
2013,10,23,00,25,6.20
2013,10,23,00,26,6.20
2013,10,23,00,27,6.20
2013,10,23,00,28,6.20
2013,10,23,00,29,6.20
2013,10,23,00,30,6.20
2013,10,23,00,31,6.30
2013,10,23,00,32,6.30
2013,10,23,00,33,6.30
2013,10,23,00,34,6.30
2013,10,23,00,35,6.30
2013,10,23,00,36,6.30
2013,10,23,00,37,6.30
2013,10,23,00,38,6.30
2013,10,23,00,39,6.30
2013,10,23,00,40,6.30
2013,10,23,00,41,6.30
2013,10,23,00,42,6.30
2013,10,23,00,43,6.30
2013,10,23,00,44,6.30
2013,10,23,00,45,6.30
2013,10,23,00,46,6.30
2013,10,23,00,47,6.30
2013,10,23,00,48,6.30
2013,10,23,00,49,6.30
2013,10,23,00,50,6.30
2013,10,23,00,51,6.30
2013,10,23,00,52,6.30
2013,10,23,00,53,6.30
2013,10,23,00,54,6.20
2013,10,23,00,55,6.20
2013,10,23,00,56,6.20
2013,10,23,00,57,6.20
2013,10,23,00,58,6.20
2013,10,23,00,59,6.20
2013,10,23,01,00,6.20
2013,10,23,01,01,6.20
2013,10,23,01,02,6.20
2013,10,23,01,03,6.20
2013,10,23,01,04,6.20
2013,10,23,01,05,6.20
2013,10,23,01,06,6.20
2013,10,23,01,07,6.20
2013,10,23,01,08,6.20
2013,10,23,01,09,6.20
2013,10,23,01,10,6.10
2013,10,23,01,11,6.10
2013,10,23,01,12,6.10
2013,10,23,01,13,6.10
2013,10,23,01,14,6.10
2013,10,23,01,15,6.10
2013,10,23,01,16,6.10
2013,10,23,01,17,6.10
2013,10,23,01,18,6.10
2013,10,23,01,19,6.10
2013,10,23,01,20,6.10
2013,10,23,01,21,6.10
2013,10,23,01,22,6.10
2013,10,23,01,23,6.00
2013,10,23,01,24,6.00
2013,10,23,01,25,6.00
2013,10,23,01,26,6.00
2013,10,23,01,27,6.00
2013,10,23,01,28,5.90
2013,10,23,01,29,5.90
2013,10,23,01,30,5.90
2013,10,23,01,31,5.90
2013,10,23,01,32,5.90
2013,10,23,01,33,5.90
2013,10,23,01,34,5.90
2013,10,23,01,35,5.90
2013,10,23,01,36,5.90
2013,10,23,01,37,5.90
2013,10,23,01,38,5.90
2013,10,23,01,39,5.80
2013,10,23,01,40,5.80
2013,10,23,01,41,5.80
2013,10,23,01,42,5.80
2013,10,23,01,43,5.80
2013,10,23,01,44,5.80
2013,10,23,01,45,5.80
2013,10,23,01,46,5.80
2013,10,23,01,47,5.70
2013,10,23,01,48,5.70
2013,10,23,01,49,5.70
2013,10,23,01,50,5.70
2013,10,23,01,51,5.70
2013,10,23,01,52,5.70
2013,10,23,01,53,5.70
2013,10,23,01,54,5.70
2013,10,23,01,55,5.70
2013,10,23,01,56,5.60
2013,10,23,01,57,5.60
2013,10,23,01,58,5.60
2013,10,23,01,59,5.60
2013,10,23,02,00,5.60
2013,10,23,02,01,5.60
2013,10,23,02,02,5.60
2013,10,23,02,03,5.60
2013,10,23,02,04,5.60
2013,10,23,02,05,5.60
2013,10,23,02,06,5.50
2013,10,23,02,07,5.50
2013,10,23,02,08,5.50
2013,10,23,02,09,5.50
2013,10,23,02,10,5.50
2013,10,23,02,11,5.50
2013,10,23,02,12,5.50
2013,10,23,02,13,5.50
2013,10,23,02,14,5.40
2013,10,23,02,15,5.40
2013,10,23,02,16,5.40
2013,10,23,02,17,5.40
2013,10,23,02,18,5.40
2013,10,23,02,19,5.40
2013,10,23,02,20,5.40
2013,10,23,02,21,5.40
2013,10,23,02,22,5.30
2013,10,23,02,23,5.30
2013,10,23,02,24,5.30
2013,10,23,02,25,5.30
2013,10,23,02,26,5.30
2013,10,23,02,27,5.30
2013,10,23,02,28,5.30
2013,10,23,02,29,5.30
2013,10,23,02,30,5.30
2013,10,23,02,31,5.30
2013,10,23,02,32,5.30
2013,10,23,02,33,5.30
2013,10,23,02,34,5.30
2013,10,23,02,35,5.30
2013,10,23,02,36,5.30
2013,10,23,02,37,5.30
2013,10,23,02,38,5.30
2013,10,23,02,39,5.30
2013,10,23,02,40,5.30
2013,10,23,02,41,5.30
2013,10,23,02,42,5.30
2013,10,23,02,43,5.20
2013,10,23,02,44,5.20
2013,10,23,02,45,5.20
2013,10,23,02,46,5.20
2013,10,23,02,47,5.20
2013,10,23,02,48,5.20
2013,10,23,02,49,5.20
2013,10,23,02,50,5.20
2013,10,23,02,51,5.20
2013,10,23,02,52,5.20
2013,10,23,02,53,5.20
2013,10,23,02,54,5.20
2013,10,23,02,55,5.20
2013,10,23,02,56,5.10
2013,10,23,02,57,5.10
2013,10,23,02,58,5.10
2013,10,23,02,59,5.10
2013,10,23,03,00,5.10
2013,10,23,03,01,5.10
2013,10,23,03,02,5.10
2013,10,23,03,03,5.10
2013,10,23,03,04,5.20
2013,10,23,03,05,5.10
2013,10,23,03,06,5.20
2013,10,23,03,07,5.20
2013,10,23,03,08,5.20
2013,10,23,03,09,5.20
2013,10,23,03,10,5.20
2013,10,23,03,11,5.20
2013,10,23,03,12,5.20
2013,10,23,03,13,5.20
2013,10,23,03,14,5.20
2013,10,23,03,15,5.10
2013,10,23,03,16,5.10
2013,10,23,03,17,5.10
2013,10,23,03,18,5.10
2013,10,23,03,19,5.10
2013,10,23,03,20,5.10
2013,10,23,03,21,5.10
2013,10,23,03,22,5.10
2013,10,23,03,23,5.10
2013,10,23,03,24,5.10
2013,10,23,03,25,5.10
2013,10,23,03,26,5.10
2013,10,23,03,27,5.10
2013,10,23,03,28,5.00
2013,10,23,03,29,5.00
2013,10,23,03,30,5.00
2013,10,23,03,31,5.00
2013,10,23,03,32,5.00
2013,10,23,03,33,4.90
2013,10,23,03,34,4.90
2013,10,23,03,35,4.90
2013,10,23,03,36,4.90
2013,10,23,03,37,4.90
2013,10,23,03,38,4.90
2013,10,23,03,39,4.90
2013,10,23,03,40,4.90
2013,10,23,03,41,4.90
2013,10,23,03,42,4.90
2013,10,23,03,43,4.90
2013,10,23,03,44,4.90
2013,10,23,03,45,4.80
2013,10,23,03,46,4.80
2013,10,23,03,47,4.80
2013,10,23,03,48,4.80
2013,10,23,03,49,4.80
2013,10,23,03,50,4.80
2013,10,23,03,51,4.80
2013,10,23,03,52,4.80
2013,10,23,03,53,4.80
2013,10,23,03,54,4.80
2013,10,23,03,55,4.70
2013,10,23,03,56,4.70
2013,10,23,03,57,4.70
2013,10,23,03,58,4.70
2013,10,23,03,59,4.70
2013,10,23,04,00,4.70
2013,10,23,04,01,4.70
2013,10,23,04,02,4.70
2013,10,23,04,03,4.70
2013,10,23,04,04,4.70
2013,10,23,04,05,4.70
2013,10,23,04,06,4.70
2013,10,23,04,07,4.70
2013,10,23,04,08,4.70
2013,10,23,04,09,4.70
2013,10,23,04,10,4.70
2013,10,23,04,11,4.70
2013,10,23,04,12,4.70
2013,10,23,04,13,4.70
2013,10,23,04,14,4.70
2013,10,23,04,15,4.70
2013,10,23,04,16,4.70
2013,10,23,04,17,4.70
2013,10,23,04,18,4.70
2013,10,23,04,19,4.70
2013,10,23,04,20,4.60
2013,10,23,04,21,4.60
2013,10,23,04,22,4.60
2013,10,23,04,23,4.60
2013,10,23,04,24,4.60
2013,10,23,04,25,4.60
2013,10,23,04,26,4.60
2013,10,23,04,27,4.70
2013,10,23,04,28,4.70
2013,10,23,04,29,4.70
2013,10,23,04,30,4.70
2013,10,23,04,31,4.80
2013,10,23,04,32,4.80
2013,10,23,04,33,4.80
2013,10,23,04,34,4.80
2013,10,23,04,35,4.80
2013,10,23,04,36,4.80
2013,10,23,04,37,4.80
2013,10,23,04,38,4.80
2013,10,23,04,39,4.80
2013,10,23,04,40,4.80
2013,10,23,04,41,4.80
2013,10,23,04,42,4.80
2013,10,23,04,43,4.80
2013,10,23,04,44,4.80
2013,10,23,04,45,4.80
2013,10,23,04,46,4.80
2013,10,23,04,47,4.80
2013,10,23,04,48,4.80
2013,10,23,04,49,4.70
2013,10,23,04,50,4.70
2013,10,23,04,51,4.70
2013,10,23,04,52,4.70
2013,10,23,04,53,4.70
2013,10,23,04,54,4.70
2013,10,23,04,55,4.60
2013,10,23,04,56,4.60
2013,10,23,04,57,4.60
2013,10,23,04,58,4.60
2013,10,23,04,59,4.60
2013,10,23,05,00,4.60
2013,10,23,05,01,4.60
2013,10,23,05,02,4.60
2013,10,23,05,03,4.50
2013,10,23,05,04,4.50
2013,10,23,05,05,4.50
2013,10,23,05,06,4.50
2013,10,23,05,07,4.50
2013,10,23,05,08,4.50
2013,10,23,05,09,4.50
2013,10,23,05,10,4.50
2013,10,23,05,11,4.40
2013,10,23,05,12,4.40
2013,10,23,05,13,4.40
2013,10,23,05,14,4.40
2013,10,23,05,15,4.40
2013,10,23,05,16,4.40
2013,10,23,05,17,4.40
2013,10,23,05,18,4.40
2013,10,23,05,19,4.30
2013,10,23,05,20,4.30
2013,10,23,05,21,4.30
2013,10,23,05,22,4.30
2013,10,23,05,23,4.30
2013,10,23,05,24,4.30
2013,10,23,05,25,4.30
2013,10,23,05,26,4.30
2013,10,23,05,27,4.20
2013,10,23,05,28,4.20
2013,10,23,05,29,4.20
2013,10,23,05,30,4.20
2013,10,23,05,31,4.20
2013,10,23,05,32,4.20
2013,10,23,05,33,4.20
2013,10,23,05,34,4.20
2013,10,23,05,35,4.20
2013,10,23,05,36,4.20
2013,10,23,05,37,4.20
2013,10,23,05,38,4.20
2013,10,23,05,39,4.20
2013,10,23,05,40,4.20
2013,10,23,05,41,4.20
2013,10,23,05,42,4.20
2013,10,23,05,43,4.20
2013,10,23,05,44,4.20
2013,10,23,05,45,4.20
2013,10,23,05,46,4.20
2013,10,23,05,47,4.20
2013,10,23,05,48,4.20
2013,10,23,05,49,4.20
2013,10,23,05,50,4.20
2013,10,23,05,51,4.20
2013,10,23,05,52,4.20
2013,10,23,05,53,4.20
2013,10,23,05,54,4.20
2013,10,23,05,55,4.20
2013,10,23,05,56,4.20
2013,10,23,05,57,4.20
2013,10,23,05,58,4.20
2013,10,23,05,59,4.20
2013,10,23,06,00,4.20
2013,10,23,06,01,4.20
2013,10,23,06,02,4.20
2013,10,23,06,03,4.20
2013,10,23,06,04,4.20
2013,10,23,06,05,4.20
2013,10,23,06,06,4.20
2013,10,23,06,07,4.20
2013,10,23,06,08,4.20
2013,10,23,06,09,4.20
2013,10,23,06,10,4.20
2013,10,23,06,11,4.20
2013,10,23,06,12,4.20
2013,10,23,06,13,4.20
2013,10,23,06,14,4.30
2013,10,23,06,15,4.30
2013,10,23,06,16,4.30
2013,10,23,06,17,4.30
2013,10,23,06,18,4.30
2013,10,23,06,19,4.30
2013,10,23,06,20,4.30
2013,10,23,06,21,4.30
2013,10,23,06,22,4.30
2013,10,23,06,23,4.30
2013,10,23,06,24,4.30
2013,10,23,06,25,4.20
2013,10,23,06,26,4.20
2013,10,23,06,27,4.20
2013,10,23,06,28,4.20
2013,10,23,06,29,4.20
2013,10,23,06,30,4.20
2013,10,23,06,31,4.20
2013,10,23,06,32,4.20
2013,10,23,06,33,4.20
2013,10,23,06,34,4.20
2013,10,23,06,35,4.20
2013,10,23,06,36,4.10
2013,10,23,06,37,4.10
2013,10,23,06,38,4.10
2013,10,23,06,39,4.10
2013,10,23,06,40,4.10
2013,10,23,06,41,4.10
2013,10,23,06,42,4.10
2013,10,23,06,43,4.10
2013,10,23,06,44,4.10
2013,10,23,06,45,4.10
2013,10,23,06,46,4.10
2013,10,23,06,47,4.10
2013,10,23,06,48,4.00
2013,10,23,06,49,4.00
2013,10,23,06,50,4.00
2013,10,23,06,51,4.00
2013,10,23,06,52,4.00
2013,10,23,06,53,4.00
2013,10,23,06,54,4.00
2013,10,23,06,55,4.00
2013,10,23,06,56,4.00
2013,10,23,06,57,4.00
2013,10,23,06,58,4.00
2013,10,23,06,59,4.00
2013,10,23,07,00,4.00
2013,10,23,07,01,4.00
2013,10,23,07,02,4.00
2013,10,23,07,03,4.00
2013,10,23,07,04,3.90
2013,10,23,07,05,4.00
2013,10,23,07,06,4.00
2013,10,23,07,07,4.00
2013,10,23,07,08,4.00
2013,10,23,07,09,4.10
2013,10,23,07,10,4.10
2013,10,23,07,11,4.10
2013,10,23,07,12,4.10
2013,10,23,07,13,4.20
2013,10,23,07,14,4.20
2013,10,23,07,15,4.20
2013,10,23,07,16,4.20
2013,10,23,07,17,4.30
2013,10,23,07,18,4.30
2013,10,23,07,19,4.30
2013,10,23,07,20,4.30
2013,10,23,07,21,4.30
2013,10,23,07,22,4.30
2013,10,23,07,23,4.30
2013,10,23,07,24,4.20
2013,10,23,07,25,4.20
2013,10,23,07,26,4.20
2013,10,23,07,27,4.10
2013,10,23,07,28,4.10
2013,10,23,07,29,4.10
2013,10,23,07,30,4.10
2013,10,23,07,31,4.10
2013,10,23,07,32,4.10
2013,10,23,07,33,4.10
2013,10,23,07,34,4.10
2013,10,23,07,35,4.10
2013,10,23,07,36,4.10
2013,10,23,07,37,4.10
2013,10,23,08,20,3.90
2013,10,23,08,21,3.90
2013,10,23,08,22,3.90
2013,10,23,08,23,3.90
2013,10,23,08,24,4.00
2013,10,23,08,25,4.00
2013,10,23,08,26,4.10
2013,10,23,08,27,4.10
2013,10,23,08,28,4.10
2013,10,23,08,29,4.10
2013,10,23,08,30,4.10
2013,10,23,08,31,4.20
2013,10,23,08,32,4.20
2013,10,23,08,33,4.20
2013,10,23,08,34,4.20
2013,10,23,08,35,4.30
2013,10,23,08,36,4.30
2013,10,23,08,37,4.30
2013,10,23,08,38,4.30
2013,10,23,08,39,4.30
2013,10,23,08,40,4.30
2013,10,23,08,41,4.40
2013,10,23,08,42,4.40
2013,10,23,08,43,4.40
2013,10,23,08,44,4.40
2013,10,23,08,45,4.50
2013,10,23,08,46,4.50
2013,10,23,08,47,4.60
2013,10,23,08,48,4.70
2013,10,23,08,49,4.80
2013,10,23,08,50,4.80
2013,10,23,08,51,4.90
2013,10,23,08,52,5.00
2013,10,23,08,53,5.00
2013,10,23,08,54,5.10
2013,10,23,08,55,5.10
2013,10,23,08,56,5.20
2013,10,23,08,57,5.20
2013,10,23,08,58,5.20
2013,10,23,08,59,5.20
2013,10,23,09,00,5.30
2013,10,23,09,01,5.30
2013,10,23,09,02,5.30
2013,10,23,09,03,5.30
2013,10,23,09,04,5.30
2013,10,23,09,05,5.30
2013,10,23,09,06,5.30
2013,10,23,09,07,5.30
2013,10,23,09,08,5.30
2013,10,23,09,09,5.30
2013,10,23,09,10,5.40
2013,10,23,09,11,5.40
2013,10,23,09,12,5.40
2013,10,23,09,13,5.40
2013,10,23,09,14,5.50
2013,10,23,09,15,5.50
2013,10,23,09,16,5.60
2013,10,23,09,17,5.60
2013,10,23,09,18,5.60
2013,10,23,09,19,5.70
2013,10,23,09,20,5.70
2013,10,23,09,21,5.80
2013,10,23,09,22,5.80
2013,10,23,09,23,5.90
2013,10,23,09,24,5.90
2013,10,23,09,25,6.00
2013,10,23,09,26,6.10
2013,10,23,09,27,6.10
2013,10,23,09,28,6.20
2013,10,23,09,29,6.20
2013,10,23,09,30,6.30
2013,10,23,09,31,6.30
2013,10,23,09,32,6.40
2013,10,23,09,33,6.50
2013,10,23,09,34,6.60
2013,10,23,09,35,6.60
2013,10,23,09,36,6.70
2013,10,23,09,37,6.80
2013,10,23,09,38,6.90
2013,10,23,09,39,6.90
2013,10,23,09,40,7.00
2013,10,23,09,41,7.10
2013,10,23,09,42,7.10
2013,10,23,09,43,7.10
2013,10,23,09,44,7.20
2013,10,23,09,45,7.20
2013,10,23,09,46,7.20
2013,10,23,09,47,7.20
2013,10,23,09,48,7.30
2013,10,23,09,49,7.30
2013,10,23,09,50,7.40
2013,10,23,09,51,7.40
2013,10,23,09,52,7.40
2013,10,23,09,53,7.50
2013,10,23,09,54,7.60
2013,10,23,09,55,7.60
2013,10,23,09,56,7.60
2013,10,23,09,57,7.70
2013,10,23,09,58,7.70
2013,10,23,09,59,7.80
2013,10,23,10,00,7.80
2013,10,23,10,01,7.80
2013,10,23,10,02,7.90
2013,10,23,10,03,7.90
2013,10,23,10,04,8.00
2013,10,23,10,05,8.00
2013,10,23,10,06,8.10
2013,10,23,10,07,8.20
2013,10,23,10,08,8.30
2013,10,23,10,09,8.30
2013,10,23,10,10,8.40
2013,10,23,10,11,8.50
2013,10,23,10,12,8.50
2013,10,23,10,13,8.60
2013,10,23,10,14,8.70
2013,10,23,10,15,8.70
2013,10,23,10,16,8.70
2013,10,23,10,17,8.80
2013,10,23,10,18,8.80
2013,10,23,10,19,8.90
2013,10,23,10,20,9.00
2013,10,23,10,21,9.00
2013,10,23,10,22,9.10
2013,10,23,10,23,9.20
2013,10,23,10,24,9.20
2013,10,23,10,25,9.30
2013,10,23,10,26,9.40
2013,10,23,10,27,9.50
2013,10,23,10,28,9.60
2013,10,23,10,29,9.60
2013,10,23,10,30,9.60
2013,10,23,10,31,9.70
2013,10,23,10,32,9.70
2013,10,23,10,33,9.70
2013,10,23,10,34,9.80
2013,10,23,10,35,9.80
2013,10,23,10,36,9.90
2013,10,23,10,37,9.90
2013,10,23,10,38,9.90
2013,10,23,10,39,9.90
2013,10,23,10,40,9.90
2013,10,23,10,41,9.90
2013,10,23,10,42,9.90
2013,10,23,10,43,10.00
2013,10,23,10,44,10.10
2013,10,23,10,45,10.10
2013,10,23,10,46,10.20
2013,10,23,10,47,10.30
2013,10,23,10,48,10.30
2013,10,23,10,49,10.30
2013,10,23,10,50,10.30
2013,10,23,10,51,10.30
2013,10,23,10,52,10.40
2013,10,23,10,53,10.50
2013,10,23,10,54,10.50
2013,10,23,10,55,10.60
2013,10,23,10,56,10.60
2013,10,23,10,57,10.70
2013,10,23,10,58,10.70
2013,10,23,10,59,10.80
2013,10,23,11,00,10.80
2013,10,23,11,01,10.90
2013,10,23,11,02,11.00
2013,10,23,11,03,11.00
2013,10,23,11,04,11.10
2013,10,23,11,05,11.30
2013,10,23,11,06,11.30
2013,10,23,11,07,11.40
2013,10,23,11,08,11.50
2013,10,23,11,09,11.60
2013,10,23,11,10,11.70
2013,10,23,11,11,11.70
2013,10,23,11,12,11.70
2013,10,23,11,13,11.80
2013,10,23,11,14,11.80
2013,10,23,11,15,11.90
2013,10,23,11,16,11.90
2013,10,23,11,17,12.00
2013,10,23,11,18,12.10
2013,10,23,11,20,12.20
2013,10,23,11,48,13.60
2013,10,23,11,49,13.70
2013,10,23,11,50,13.80
2013,10,23,11,51,13.80
2013,10,23,11,52,13.90
2013,10,23,11,53,14.00
2013,10,23,11,54,14.00
2013,10,23,11,55,14.10
2013,10,23,11,56,14.10
2013,10,23,11,57,14.10
2013,10,23,11,58,14.20
2013,10,23,11,59,14.20
2013,10,23,12,01,14.30
2013,10,23,12,02,14.40
2013,10,23,12,03,14.60
2013,10,23,12,04,14.60
2013,10,23,12,05,14.70
2013,10,23,12,06,14.80
2013,10,23,12,07,14.90
2013,10,23,12,08,15.00
2013,10,23,12,09,15.10
2013,10,23,12,10,15.20
2013,10,23,12,11,15.30
2013,10,23,12,12,15.30
2013,10,23,12,13,15.40
2013,10,23,12,14,15.50
2013,10,23,12,15,15.50
2013,10,23,12,16,15.60
2013,10,23,12,17,15.60
2013,10,23,12,18,15.60
2013,10,23,12,19,15.70
2013,10,23,12,20,15.80
2013,10,23,12,21,15.90
2013,10,23,12,22,15.90
2013,10,23,12,23,16.00
2013,10,23,12,24,16.20
2013,10,23,12,25,16.30
2013,10,23,12,26,16.30
2013,10,23,12,27,16.40
2013,10,23,12,28,16.40
2013,10,23,12,29,16.50
2013,10,23,12,30,16.50
2013,10,23,12,31,16.60
2013,10,23,12,32,16.70
2013,10,23,12,33,16.80
2013,10,23,12,34,16.90
2013,10,23,12,35,17.00
2013,10,23,12,36,17.00
2013,10,23,12,37,17.00
2013,10,23,12,38,17.10
2013,10,23,12,39,17.20
2013,10,23,12,40,17.30
2013,10,23,12,41,17.30
2013,10,23,12,42,17.40
2013,10,23,12,43,17.50
2013,10,23,12,44,17.60
2013,10,23,12,45,17.60
2013,10,23,12,46,17.70
2013,10,23,12,47,17.80
2013,10,23,12,48,17.80
2013,10,23,12,49,17.90
2013,10,23,12,50,17.90
2013,10,23,12,51,18.00
2013,10,23,12,52,18.00
2013,10,23,12,53,18.00
2013,10,23,12,54,18.10
2013,10,23,12,55,18.20
2013,10,23,12,56,18.30
2013,10,23,12,57,18.30
2013,10,23,12,58,18.40
2013,10,23,12,59,18.50
2013,10,23,13,00,18.60
2013,10,23,13,01,18.70
2013,10,23,13,02,18.70
2013,10,23,13,03,18.80
2013,10,23,13,04,18.90
2013,10,23,13,05,19.00
2013,10,23,13,06,19.10
2013,10,23,13,07,19.10
2013,10,23,13,08,19.20
2013,10,23,13,09,19.20
2013,10,23,13,10,19.30
2013,10,23,13,11,19.30
2013,10,23,13,12,19.40
2013,10,23,13,13,19.40
2013,10,23,13,14,19.50
2013,10,23,13,15,19.50
2013,10,23,13,16,19.50
2013,10,23,13,17,19.50
2013,10,23,13,18,19.50
2013,10,23,13,19,19.40
2013,10,23,13,20,19.40
2013,10,23,13,21,19.50
2013,10,23,13,22,19.50
2013,10,23,13,23,19.50
2013,10,23,13,24,19.50
2013,10,23,13,25,19.50
2013,10,23,13,26,19.50
2013,10,23,13,27,19.40
2013,10,23,13,28,19.40
2013,10,23,13,29,19.30
2013,10,23,13,30,19.30
2013,10,23,13,31,19.30
2013,10,23,13,32,19.30
2013,10,23,13,33,19.20
2013,10,23,13,34,19.20
2013,10,23,13,35,19.20
2013,10,23,13,36,19.20
2013,10,23,13,37,19.30
2013,10,23,13,38,19.30
2013,10,23,13,39,19.40
2013,10,23,13,40,19.40
2013,10,23,13,41,19.40
2013,10,23,13,42,19.50
2013,10,23,13,43,19.50
2013,10,23,13,44,19.60
2013,10,23,13,45,19.60
2013,10,23,13,46,19.70
2013,10,23,13,47,19.70
2013,10,23,13,48,19.80
2013,10,23,13,49,19.80
2013,10,23,13,50,19.70
2013,10,23,13,51,19.70
2013,10,23,13,52,19.70
2013,10,23,13,53,19.70
2013,10,23,13,54,19.70
2013,10,23,13,55,19.70
2013,10,23,13,56,19.70
2013,10,23,13,57,19.70
2013,10,23,13,58,19.80
2013,10,23,13,59,19.90
2013,10,23,14,00,20.00
2013,10,23,14,01,20.10
2013,10,23,14,02,20.20
2013,10,23,14,03,20.30
2013,10,23,14,04,20.30
2013,10,23,14,05,20.40
2013,10,23,14,06,20.40
2013,10,23,14,07,20.40
2013,10,23,14,08,20.40
2013,10,23,14,09,20.40
2013,10,23,14,10,20.40
2013,10,23,14,11,20.40
2013,10,23,14,12,20.40
2013,10,23,14,13,20.40
2013,10,23,14,14,20.40
2013,10,23,14,15,20.30
2013,10,23,14,16,20.30
2013,10,23,14,17,20.20
2013,10,23,14,18,20.20
2013,10,23,14,19,20.20
2013,10,23,14,20,20.10
2013,10,23,14,21,20.10
2013,10,23,14,22,20.10
2013,10,23,14,23,20.10
2013,10,23,14,24,20.10
2013,10,23,14,25,20.10
2013,10,23,14,26,20.10
2013,10,23,14,27,20.20
2013,10,23,14,28,20.30
2013,10,23,14,29,20.30
2013,10,23,14,30,20.20
2013,10,23,14,31,20.20
2013,10,23,14,32,20.20
2013,10,23,14,33,20.10
2013,10,23,14,34,20.10
2013,10,23,14,35,20.10
2013,10,23,14,36,20.10
2013,10,23,14,37,20.10
2013,10,23,14,38,20.10
2013,10,23,14,39,20.10
2013,10,23,14,40,20.10
2013,10,23,14,41,20.10
2013,10,23,14,42,20.10
2013,10,23,14,43,20.10
2013,10,23,14,44,20.10
2013,10,23,14,45,20.10
2013,10,23,14,46,20.10
2013,10,23,14,47,20.10
2013,10,23,14,48,20.10
2013,10,23,14,49,20.10
2013,10,23,14,50,20.10
2013,10,23,14,51,20.00
2013,10,23,14,52,20.00
2013,10,23,14,53,20.00
2013,10,23,14,54,20.00
2013,10,23,14,55,20.10
2013,10,23,14,56,20.10
2013,10,23,14,57,20.10
2013,10,23,14,58,20.10
2013,10,23,14,59,20.10
2013,10,23,15,00,20.10
2013,10,23,15,01,20.10
2013,10,23,15,02,20.10
2013,10,23,15,03,20.20
2013,10,23,15,04,20.20
2013,10,23,15,05,20.20
2013,10,23,15,06,20.20
2013,10,23,15,07,20.20
2013,10,23,15,08,20.20
2013,10,23,15,09,20.20
2013,10,23,15,10,20.30
2013,10,23,15,11,20.30
2013,10,23,15,12,20.30
2013,10,23,15,13,20.30
2013,10,23,15,14,20.30
2013,10,23,15,15,20.20
2013,10,23,15,16,20.20
2013,10,23,15,17,20.20
2013,10,23,15,18,20.20
2013,10,23,15,19,20.20
2013,10,23,15,20,20.20
2013,10,23,15,21,20.10
2013,10,23,15,22,20.10
2013,10,23,15,23,20.10
2013,10,23,15,24,20.10
2013,10,23,15,25,20.10
2013,10,23,15,26,20.10
2013,10,23,15,27,20.10
2013,10,23,15,28,20.10
2013,10,23,15,29,20.00
2013,10,23,15,30,19.90
2013,10,23,15,31,19.80
2013,10,23,15,32,19.80
2013,10,23,15,33,19.80
2013,10,23,15,34,19.70
2013,10,23,15,35,19.70
2013,10,23,15,36,19.70
2013,10,23,15,37,19.70
2013,10,23,15,38,19.60
2013,10,23,15,39,19.60
2013,10,23,15,40,19.60
2013,10,23,15,41,19.50
2013,10,23,15,42,19.40
2013,10,23,15,43,19.40
2013,10,23,15,44,19.30
2013,10,23,15,45,19.30
2013,10,23,15,46,19.30
2013,10,23,15,47,19.30
2013,10,23,15,48,19.20
2013,10,23,15,49,19.20
2013,10,23,15,50,19.20
2013,10,23,15,51,19.20
2013,10,23,15,52,19.20
2013,10,23,15,53,19.20
2013,10,23,15,54,19.20
2013,10,23,15,55,19.20
2013,10,23,15,56,19.10
2013,10,23,15,57,19.10
2013,10,23,15,58,19.10
2013,10,23,15,59,19.10
2013,10,23,16,00,19.10
2013,10,23,16,01,19.10
2013,10,23,16,02,19.10
2013,10,23,16,03,19.10
2013,10,23,16,04,19.10
2013,10,23,16,05,19.10
2013,10,23,16,06,19.00
2013,10,23,16,07,18.90
2013,10,23,16,08,18.90
2013,10,23,16,09,18.90
2013,10,23,16,10,18.80
2013,10,23,16,11,18.80
2013,10,23,16,12,18.70
2013,10,23,16,13,18.60
2013,10,23,16,14,18.60
2013,10,23,16,15,18.50
2013,10,23,16,16,18.40
2013,10,23,16,17,18.30
2013,10,23,16,18,18.30
2013,10,23,16,19,18.20
2013,10,23,16,20,18.20
2013,10,23,16,21,18.20
2013,10,23,16,22,18.10
2013,10,23,16,23,18.10
2013,10,23,16,24,18.10
2013,10,23,16,25,18.00
2013,10,23,16,26,18.00
2013,10,23,16,27,18.00
2013,10,23,16,28,18.10
2013,10,23,16,29,18.10
2013,10,23,16,30,18.10
2013,10,23,16,31,18.10
2013,10,23,16,32,18.10
2013,10,23,16,33,18.10
2013,10,23,16,34,18.10
2013,10,23,16,35,18.10
2013,10,23,16,36,18.00
2013,10,23,16,37,18.00
2013,10,23,16,38,18.00
2013,10,23,16,39,18.00
2013,10,23,16,40,18.00
2013,10,23,16,41,18.10
2013,10,23,16,42,18.10
2013,10,23,16,43,18.10
2013,10,23,16,44,18.10
2013,10,23,16,45,18.20
2013,10,23,16,46,18.20
2013,10,23,16,47,18.20
2013,10,23,16,48,18.20
2013,10,23,16,49,18.20
2013,10,23,16,50,18.20
2013,10,23,16,51,18.20
2013,10,23,16,52,18.20
2013,10,23,16,53,18.20
2013,10,23,16,54,18.10
2013,10,23,16,55,18.10
2013,10,23,16,56,18.10
2013,10,23,16,57,18.10
2013,10,23,16,58,18.00
2013,10,23,16,59,18.00
2013,10,23,17,00,17.90
2013,10,23,17,01,17.90
2013,10,23,17,02,17.80
2013,10,23,17,03,17.80
2013,10,23,17,04,17.80
2013,10,23,17,05,17.80
2013,10,23,17,06,17.70
2013,10,23,17,07,17.70
2013,10,23,17,08,17.70
2013,10,23,17,09,17.60
2013,10,23,17,10,17.60
2013,10,23,17,11,17.60
2013,10,23,17,12,17.60
2013,10,23,17,13,17.50
2013,10,23,17,14,17.50
2013,10,23,17,15,17.50
2013,10,23,17,16,17.50
2013,10,23,17,17,17.60
2013,10,23,17,18,17.60
2013,10,23,17,19,17.60
2013,10,23,17,20,17.60
2013,10,23,17,21,17.60
2013,10,23,17,22,17.60
2013,10,23,17,23,17.60
2013,10,23,17,24,17.50
2013,10,23,17,25,17.50
2013,10,23,17,26,17.50
2013,10,23,17,27,17.50
2013,10,23,17,28,17.40
2013,10,23,17,29,17.40
2013,10,23,17,30,17.40
2013,10,23,17,31,17.40
2013,10,23,17,32,17.30
2013,10,23,17,33,17.30
2013,10,23,17,34,17.30
2013,10,23,17,35,17.20
2013,10,23,17,36,17.20
2013,10,23,17,37,17.20
2013,10,23,17,38,17.10
2013,10,23,17,39,17.10
2013,10,23,17,40,17.10
2013,10,23,17,41,17.00
2013,10,23,17,42,17.00
2013,10,23,17,43,16.90
2013,10,23,17,44,16.90
2013,10,23,17,45,16.80
2013,10,23,17,46,16.80
2013,10,23,17,47,16.80
2013,10,23,17,48,16.70
2013,10,23,17,49,16.70
2013,10,23,17,50,16.60
2013,10,23,17,51,16.60
2013,10,23,17,52,16.50
2013,10,23,17,53,16.50
2013,10,23,17,54,16.40
2013,10,23,17,55,16.40
2013,10,23,17,56,16.30
2013,10,23,17,57,16.20
2013,10,23,17,58,16.20
2013,10,23,17,59,16.10
2013,10,23,18,00,16.00
2013,10,23,18,01,15.90
2013,10,23,18,02,15.90
2013,10,23,18,03,15.80
2013,10,23,18,04,15.80
2013,10,23,18,05,15.70
2013,10,23,18,06,15.70
2013,10,23,18,07,15.60
2013,10,23,18,08,15.60
2013,10,23,18,09,15.50
2013,10,23,18,10,15.50
2013,10,23,18,11,15.40
2013,10,23,18,12,15.40
2013,10,23,18,13,15.30
2013,10,23,18,14,15.20
2013,10,23,18,15,15.20
2013,10,23,18,16,15.10
2013,10,23,18,17,15.00
2013,10,23,18,18,15.00
2013,10,23,18,19,15.00
2013,10,23,18,20,15.00
2013,10,23,18,21,15.00
2013,10,23,18,22,14.90
2013,10,23,18,23,14.80
2013,10,23,18,24,14.80
2013,10,23,18,25,14.80
2013,10,23,18,26,14.70
2013,10,23,18,27,14.70
2013,10,23,18,28,14.70
2013,10,23,18,29,14.60
2013,10,23,18,30,14.60
2013,10,23,18,31,14.60
2013,10,23,18,32,14.50
2013,10,23,18,33,14.50
2013,10,23,18,34,14.40
2013,10,23,18,35,14.40
2013,10,23,18,36,14.30
2013,10,23,18,37,14.30
2013,10,23,18,38,14.20
2013,10,23,18,39,14.20
2013,10,23,18,40,14.10
2013,10,23,18,41,14.00
2013,10,23,18,42,14.00
2013,10,23,18,43,13.90
2013,10,23,18,44,13.90
2013,10,23,18,45,13.80
2013,10,23,18,46,13.80
2013,10,23,18,47,13.70
2013,10,23,18,48,13.70
2013,10,23,18,49,13.60
2013,10,23,18,50,13.60
2013,10,23,18,51,13.60
2013,10,23,18,52,13.50
2013,10,23,18,53,13.50
2013,10,23,18,54,13.40
2013,10,23,18,55,13.40
2013,10,23,18,56,13.30